Location: Meanaryar
(48.4161°N, 4.7315°W)
Time: 16:33:43
(UTC+00:00)

SPOT 1/Viking Rocket - Pass Details

Date: 18 September 2020
Orbit: 777 x 794 km, 98.5° (Epoch: 29 October)

Event Time Altitude Azimuth Distance (km) Brightness Sun altitude
Exits shadow 21:14:23 61° 37° (NE) 893 3.7 -27.0°
Drops below altitude 10° 21:18:59 10° 351° (N) 2,352 6.6 -27.6°
Sets 21:21:19 0° 349° (NNW) 3,282 7.5 -27.9°
